Regional Weather Roundup
Issued by NWS

Home | Current Version | Previous Version | Graphics & Text | Print | Product List | Glossary Off
Versions: 1 2 3 4 5 6 7 8 9 10 11 12 13 14 15 16 17 18 19 20 21 22 23 24 25 26 27 28 29 30 31 32 33 34 35 36 37 38 39 40 41 42 43 44 45 46 47 48 49 50

000
ASUS44 KFWD 290615
RWRTX
NORTH TEXAS HOURLY WEATHER ROUNDUP
NATIONAL WEATHER SERVICE FORT WORTH TX
100 AM CDT TUE JUL 29 2014

NOTE: "FAIR" INDICATES FEW OR NO CLOUDS BELOW 12,000 FEET WITH NO
SIGNIFICANT WEATHER AND/OR OBSTRUCTIONS TO VISIBILITY.

TXZ118-119-290700-
DALLAS/FORT WORTH METROPLEX

CITY           SKY/WX    TMP DP  RH WIND       PRES   REMARKS
DFW AIRPORT    MOCLDY    79  63  57 N8        30.12S
6HR MIN TEMP:  78; 6HR MAX TEMP:  88;

DALLAS LOVE    MOCLDY    81  61  50 NE7       30.11S
6HR MIN TEMP:  81; 6HR MAX TEMP:  90;

FTW MEACHAM    MOCLDY    78  64  61 NE8       30.11F
6HR MIN TEMP:  78; 6HR MAX TEMP:  90;

DAL-EXECUTIVE  CLOUDY    83  58  42 NE8       30.11S
6HR MIN TEMP:  82; 6HR MAX TEMP:  93;

FTW-ALLIANCE   MOCLDY    76  63  64 NE7       30.12S
6HR MIN TEMP:  76; 6HR MAX TEMP:  86;

FTW-NAS-JRB    MOCLDY    81  62  52 NW3       30.16S
6HR MIN TEMP:  81; 6HR MAX TEMP:  91;

FTW-SPINKS     PTCLDY    75  63  66 CALM      30.13S
6HR MIN TEMP:  74; 6HR MAX TEMP:  92;

ARLINGTON      MOCLDY    81  60  48 NE7       30.11F
6HR MIN TEMP:  81; 6HR MAX TEMP:  90;

GRAND PRAIRIE  CLEAR     80  60  51 N5        30.13S
6HR MIN TEMP:  80; 6HR MAX TEMP:  89;

ADDISON        PTCLDY    79  60  52 CALM      30.14S
6HR MIN TEMP:  79; 6HR MAX TEMP:  89;

MESQUITE       PTCLDY    75  59  57 N3        30.11S
6HR MIN TEMP:  75; 6HR MAX TEMP:  87;

LANCASTER      MOCLDY    78  59  52 CALM      30.12S
6HR MIN TEMP:  74; 6HR MAX TEMP:  90;

$$

TXZ091>094-102>105-117-120-121-131>134-290700-
NORTH CENTRAL TEXAS

CITY           SKY/WX    TMP DP  RH WIND       PRES   REMARKS
SHRMAN/DENISON PTCLDY    75  64  67 CALM      30.14S
6HR MIN TEMP:  75; 6HR MAX TEMP:  83;

GAINESVILLE    CLEAR     70  64  81 CALM      30.16F
6HR MIN TEMP:  70; 6HR MAX TEMP:  82;

BOWIE          CLOUDY    72  68  89 CALM      30.16S
6HR MIN TEMP:  70; 6HR MAX TEMP:  81;

BRIDGEPORT     CLEAR     71  64  77 CALM      30.16S
6HR MIN TEMP:  69; 6HR MAX TEMP:  86;

DECATUR        CLEAR     73  63  70 CALM      30.14F
6HR MIN TEMP:  73; 6HR MAX TEMP:  83;

DENTON         PTCLDY    69  65  86 CALM      30.12F
6HR MIN TEMP:  69; 6HR MAX TEMP:  85;

MCKINNEY       CLEAR     73  64  73 N6        30.12S
6HR MIN TEMP:  71; 6HR MAX TEMP:  85;

GREENVILLE     PTCLDY    72  59  64 CALM      30.12S
ROCKWALL       CLEAR     73  64  73 CALM      30.11S
TERRELL        PTCLDY    78  60  53 N6        30.11S
6HR MIN TEMP:  78; 6HR MAX TEMP:  92;

WAXAHACHIE     CLEAR     77  59  53 NE6       30.13S
6HR MIN TEMP:  76; 6HR MAX TEMP:  89;

CLEBURNE       PTCLDY    79  66  65 NE3       30.14R
GRANBURY       PTCLDY    79  63  57 NE3       30.13S
6HR MIN TEMP:  79; 6HR MAX TEMP:  92;

$$

TXZ083>090-098>101-113>116-127>130-139>142-154-155-290700-
WESTERN NORTH TEXAS

CITY           SKY/WX    TMP DP  RH WIND       PRES   REMARKS
WICHITA FALLS  MOCLDY    73  69  87 CALM      30.15F
6HR MIN TEMP:  72; 6HR MAX TEMP:  81;

WF-KICKAPOO    PTCLDY    73  69  89 CALM      30.17S
6HR MIN TEMP:  73; 6HR MAX TEMP:  80;

VERNON         MOCLDY    74  69  85 CALM      30.18F
6HR MIN TEMP:  70; 6HR MAX TEMP:  80;

ABILENE        CLEAR     78  59  51 E7        30.17F
6HR MIN TEMP:  78; 6HR MAX TEMP:  90;

ABILENE-DYESS  CLEAR     79  61  53 E10       30.16F
6HR MIN TEMP:  79; 6HR MAX TEMP:  90;

BRECKENRIDGE   CLEAR     77  62  59 E5        30.15F
6HR MIN TEMP:  77; 6HR MAX TEMP:  87;

GRAHAM         PTCLDY    74  65  75 NE3       30.13F
6HR MIN TEMP:  73; 6HR MAX TEMP:  87;

MINERAL WELLS  MOCLDY    76  62  62 NE6       30.12F
6HR MIN TEMP:  76; 6HR MAX TEMP:  91;

STEPHENVILLE   PTCLDY    75  61  61 CALM      30.17S
6HR MIN TEMP:  75; 6HR MAX TEMP:  88;

COMANCHE       CLEAR     74  64  69 NE3       30.15S
6HR MIN TEMP:  74; 6HR MAX TEMP:  86;

BROWNWOOD      MOCLDY    77  66  69 NE3       30.14S
COLEMAN        CLEAR     76  64  67 NE7       30.16S
6HR MIN TEMP:  76; 6HR MAX TEMP:  86;

BRADY          CLEAR     79  66  65 E6        30.14S
$$

TXZ143>147-156>162-174-175-290700-
CENTRAL TEXAS

CITY           SKY/WX    TMP DP  RH WIND       PRES   REMARKS
WACO           CLEAR     75  72  90 N3        30.10R
6HR MIN TEMP:  75; 6HR MAX TEMP:  83;

WACO-MCGREGOR  PTCLDY    75  66  73 N5        30.12R
6HR MIN TEMP:  75; 6HR MAX TEMP:  84;

HILLSBORO      CLEAR     74  69  84 N6        30.11S
6HR MIN TEMP:  74; 6HR MAX TEMP:  81;

CORSICANA      CLEAR     75  72  90 N3        30.10S
6HR MIN TEMP:  75; 6HR MAX TEMP:  80;

MEXIA          CLEAR     73  71  93 CALM      30.09S
6HR MIN TEMP:  73; 6HR MAX TEMP:  78;

HEARNE         PTCLDY   N/A N/A N/A CALM      30.08R
CAMERON        CLOUDY    78  72  80 CALM      30.08R
6HR MIN TEMP:  78; 6HR MAX TEMP:  92;

TEMPLE         CLEAR     75  66  73 N5        30.10R
6HR MIN TEMP:  75; 6HR MAX TEMP:  88;

KILLEEN        PTCLDY    79  70  73 NE7       30.11R
KILLEEN-SKYLRK CLEAR     77  64  65 NE5       30.10S
6HR MIN TEMP:  77; 6HR MAX TEMP:  91;

FORT HOOD      CLEAR     80  70  71 NE3       30.11R
6HR MIN TEMP:  80; 6HR MAX TEMP:  89;

GATESVILLE     PTCLDY    75  70  83 CALM      30.13S
HAMILTON       PTCLDY    76  69  80 CALM      30.14S
6HR MIN TEMP:  76; 6HR MAX TEMP:  84;

LAMPASAS       CLEAR     78  72  80 NE5       30.11S
6HR MIN TEMP:  78; 6HR MAX TEMP:  88;

$$

TXZ095>097-106>112-122>126-135>138-148>153-164>167-290700-
EAST TEXAS

CITY           SKY/WX    TMP DP  RH WIND       PRES   REMARKS
PARIS          MOCLDY    73  63  68 N6        30.12S
6HR MIN TEMP:  72; 6HR MAX TEMP:  84;

SULPHUR SPRNGS MOCLDY    76  64  65 CALM      30.13S
6HR MIN TEMP:  76; 6HR MAX TEMP:  86;

CLARKSVILLE    MOCLDY    75  64  68 N3        30.10S
6HR MIN TEMP:  75; 6HR MAX TEMP:  86;

MOUNT PLEASANT MOCLDY    77  64  64 N5        30.11R
6HR MIN TEMP:  77; 6HR MAX TEMP:  86;

GILMER         MOCLDY    79  68  69 CALM      30.11R
MINEOLA        MOCLDY    79  66  65 CALM      30.11S
TYLER          MOCLDY    75  72  90 CALM      30.09S
6HR MIN TEMP:  75; 6HR MAX TEMP:  79;

LONGVIEW       PTCLDY    76  71  85 CALM      30.08R
6HR MIN TEMP:  75; 6HR MAX TEMP:  81;

MARSHALL       MOCLDY    78  69  71 CALM      30.10R
6HR MIN TEMP:  78; 6HR MAX TEMP:  89;

ATHENS         PTCLDY    72  70  94 N3        30.08S
JACKSONVILLE   CLEAR     73  71  92 NE3       30.11R
HENDERSON      PTCLDY    72  72 100 CALM      30.09F FOG
6HR MIN TEMP:  72; 6HR MAX TEMP:  74;

NACOGDOCHES    MOCLDY    73  72  94 CALM      30.08R
6HR MIN TEMP:  73; 6HR MAX TEMP:  75; 6HR PCP:  0.05;

LUFKIN         MOCLDY    77  72  84 CALM      30.06S
6HR MIN TEMP:  77; 6HR MAX TEMP:  87; 6HR PCP: TRACE;

$$

SUPPLEMENTAL OBSERVATIONS (CENTRAL)

CITY           SKY/WX    TMP DP  RH WIND       PRES   REMARKS
CADDO GRASSLND   N/A     72  64  78 CALM        N/A
PAT MAYSE LAKE   N/A     73  63  68 CALM        N/A
GREENVILLE       N/A     75  61  60 N3          N/A
CEDAR HILL       N/A     77  59  53 NE2         N/A
PALESTINE        N/A     73  72  94 CALM        N/A
LAKE LIMESTONE   N/A     75  73  94 NE1         N/A
MCGREGOR         N/A     75  68  78 NE6         N/A


USA.gov is the U.S. government's official web portal to all federal, state and local government web resources and services.